sat.trackr.live / text

‹ back to catalog

STARLINK-37100

NORAD 68230 · 2026-053Z

PAYLOAD ACTIVE UNKNOWN

§ Identity

Operator
Country
US
Launch date
2026-03-17
Launch site
AFWTR
Launch vehicle
Mass (kg)
RCS (m²)

Purposes: comms

External: N2YO · Heavens-Above · Gunter

§ Orbital elements

Epoch: 2026-09-19T02:31:59.202912Z

Period
93.91 min
Inclination
97.2842°
Eccentricity
0.0001517
Mean motion
15.33453804 rev/d
Perigee alt
464.5 km
Apogee alt
466.6 km
Semi-major
6,843.7 km
B*
5.1908e-4
RAAN
135.9640°
Arg perigee
95.8692°
Mean anomaly
264.2723°
Rev number
2,986

§ Raw data

STARLINK-371001 68230U 26053Z   26262.10554633  .00016725  00000+0  51908-3 0  99962 68230  97.2842 135.9640 0001517  95.8692 264.2723 15.33453804 29861

JSON: /api/v1/satellites/68230 · /tle

For live sub-satellite position, see the globe view (requires WebGL).

§ Visibility from observer

Set your observer location to see the next 7 days of passes ≥ 10°. The values pass through the URL so the page stays shareable.

No JS? Fill the form by hand. The geolocation button needs JavaScript.